Kansas Department of Transportation
RWIS(Road and Runway Information System) Map and Weather Data





Station
Surface
Air
Wind
Site IDSensor TypeLocationTemperature (°F)Temperature (°F)Humidity (%)Speed (mi/h)Gusts (mi/h)DirectionTime
123014AtmosphericBull Creek 90341221WSWSep 26 2021 1:55PM
123014DeckBull Creek111     Sep 26 2021 1:55PM
123014DepartureBull Creek111     Sep 26 2021 1:55PM
123015AtmosphericLeavenworth 8830921SWSep 26 2021 1:55PM
123015DeckLeavenworth109     Sep 26 2021 1:55PM
123015DepartureLeavenworth102     Sep 26 2021 1:55PM
123020AtmosphericMayetta 91119 SSWSep 26 2021 1:55PM
505000AtmosphericKTA 1 931000NSep 26 2021 1:50PM
505000ApproachKTA 1108     Sep 26 2021 1:50PM
505000DeckKTA 1115     Sep 26 2021 1:50PM
505001AtmosphericKTA 2 93281118SWSep 26 2021 1:50PM
505001ApproachKTA 2111     Sep 26 2021 1:40PM
505001DeckKTA 2115     Sep 26 2021 1:40PM
505002AtmosphericKTA 3 9032214ENESep 26 2021 1:50PM
505002ApproachKTA 3115     Sep 26 2021 1:40PM
505002DeckKTA 3108     Sep 26 2021 1:40PM
505003AtmosphericKTA 4 90261124NSep 26 2021 1:50PM
505003ApproachKTA 4Unavailable     Sep 26 2021 1:40PM
505003DeckKTA 4Unavailable     Sep 26 2021 1:40PM
505004AtmosphericKTA 5 88991421ESep 26 2021 1:50PM
505004RoadwayKTA 5111     Sep 26 2021 1:40PM
505004RoadwayKTA 5111     Sep 26 2021 1:40PM
505005AtmosphericKTA 6 9125816SSWSep 26 2021 1:50PM
505005Approach KTA 6115     Sep 26 2021 1:40PM
505005DeckKTA 6111     Sep 26 2021 1:40PM
505006AtmosphericKTA 7 9133716WSWSep 26 2021 1:50PM
505006ApproachKTA 7115     Sep 26 2021 1:40PM
505006DeckKTA 7104     Sep 26 2021 1:40PM
505007AtmosphericKTA 8 9037914SWSep 26 2021 1:50PM
505007ApproachKTA 8113     Sep 26 2021 1:40PM
505007DeckKTA 8102     Sep 26 2021 1:40PM
505008AtmosphericKTA 9 9028714NESep 26 2021 1:50PM
505008ApproachKTA 9117     Sep 26 2021 1:40PM
505008DeckKTA 9106     Sep 26 2021 1:40PM
505009AtmosphericKTA 10 8832612SSWSep 26 2021 1:50PM
505009ApproachKTA 10Unavailable     Sep 26 2021 1:40PM
505009DeckKTA 10104     Sep 26 2021 1:40PM
505010AtmosphericWebb 93241217SESep 26 2021 1:55PM
505010DeckWebb109     Sep 26 2021 1:55PM
505010NullWebb135     Sep 26 2021 1:55PM
505014AtmosphericI-135 9123921SWSep 26 2021 1:50PM
505014ApproachI-135108     Sep 26 2021 1:50PM
505014DeckI-135117     Sep 26 2021 1:50PM
540000AtmosphericBlue Rapids 9029714SSep 26 2021 1:55PM
540000DeckBlue Rapids108     Sep 26 2021 1:55PM
540000DepartureBlue Rapids109     Sep 26 2021 1:55PM
540001AtmosphericSabetha 9128917SWSep 26 2021 1:55PM
540001ApproachSabethaUnavailable     Sep 26 2021 1:55PM
540001DeckSabetha111     Sep 26 2021 1:55PM
540002AtmosphericWestgate 93221116SSWSep 26 2021 1:55PM
540002DeckWestgate113     Sep 26 2021 1:55PM
540002DepartureWestgate113     Sep 26 2021 1:55PM
540003AtmosphericEmporia 91281823WSWSep 26 2021 1:55PM
540003ApproachEmporia113     Sep 26 2021 1:55PM
540003DeckEmporia109     Sep 26 2021 1:55PM
540005AtmosphericLawrence 9029717SESep 26 2021 1:55PM
540005ApproachLawrence115     Sep 26 2021 1:55PM
540005DeckLawrenceUnavailable     Sep 26 2021 1:55PM
540006AtmosphericTroy 9137715SSep 26 2021 1:55PM
540006DeckTroy111     Sep 26 2021 1:55PM
540006DepartureTroy115     Sep 26 2021 1:55PM
540007AtmosphericManhattan 912717ESep 26 2021 1:55PM
540007DepartureManhattan111     Sep 26 2021 1:55PM
540007DeckManhattan117     Sep 26 2021 1:55PM
541000AtmosphericElkhart 91181521SSep 26 2021 1:55PM
541000ApproachElkhart120     Sep 26 2021 1:55PM
541000DeckElkhart115     Sep 26 2021 1:55PM
541001AtmosphericSyracuse 901828NNWSep 26 2021 1:55PM
541001Out of Service for WinterSyracuse111     Sep 26 2021 1:55PM
541001DeckSyracuse106     Sep 26 2021 1:55PM
541003AtmosphericFord 95121119SSWSep 26 2021 1:55PM
541003DeckFordUnavailable     Sep 26 2021 1:55PM
541003DepartureFord115     Sep 26 2021 1:55PM
541004AtmosphericScott 668914SWSep 26 2021 1:55PM
541004DepartureScott117     Sep 26 2021 1:55PM
541005AtmosphericNess 95201320SWSep 26 2021 1:55PM
541005DeckNess115     Sep 26 2021 1:55PM
541005DepartureNess118     Sep 26 2021 1:55PM
541007AtmosphericGarden City 90251324SSWSep 26 2021 1:55PM
541007ApproachGarden City      Sep 26 2021 1:55PM
541007DeckGarden City113     Sep 26 2021 1:55PM
543000AtmosphericJunction City 9024311NNESep 26 2021 12:55PM
543000ApproachJunction City111     Sep 26 2021 12:55PM
543000DeckJunction City108     Sep 26 2021 12:55PM
543001AtmosphericEllsworth 93221520SWSep 26 2021 1:55PM
543001RoadwayEllsworth115     Sep 26 2021 1:55PM
543002AtmosphericMcPherson 93211420SSWSep 26 2021 1:55PM
543002ApproachMcPherson      Sep 26 2021 1:55PM
543002DeckMcPherson106     Sep 26 2021 1:55PM
543003AtmosphericSalina 93111519ENESep 26 2021 1:55PM
543003DepartureSalina108     Sep 26 2021 1:55PM
543003RoadwaySalina111     Sep 26 2021 1:55PM
543004AtmosphericConcordia 88301117SSWSep 26 2021 1:55PM
543004ApproachConcordia113     Sep 26 2021 1:55PM
543004DeckConcordia109     Sep 26 2021 1:55PM
543005AtmosphericPeabody 91241117SSep 26 2021 1:55PM
543005ApproachPeabody118     Sep 26 2021 1:55PM
543005DeckPeabody113     Sep 26 2021 1:55PM
560000AtmosphericEdson 931069NNESep 26 2021 1:55PM
560000RoadwayEdson117     Sep 26 2021 1:55PM
560000RoadwayEdson111     Sep 26 2021 1:55PM
560001AtmosphericOakley 862567SSESep 26 2021 1:50PM
560001ApproachOakley115     Sep 26 2021 1:55PM
560001DeckOakley111     Sep 26 2021 1:55PM
560002AtmosphericAtwood 931329WNWSep 26 2021 1:50PM
560002ApproachAtwood126     Sep 26 2021 1:55PM
560002DeckAtwood118     Sep 26 2021 1:55PM
560003AtmosphericJennings 911724SSep 26 2021 1:55PM
560003ApproachJenningsUnavailable     Sep 26 2021 1:55PM
560003DeckJennings113     Sep 26 2021 1:55PM
560004AtmosphericWakeeney 912469SSWSep 26 2021 1:55PM
560004ApproachWakeeney113     Sep 26 2021 1:55PM
560004DeckWakeeney113     Sep 26 2021 1:55PM
560005AtmosphericWalker 93171117SWSep 26 2021 1:55PM
560005ApproachWalker115     Sep 26 2021 1:55PM
560005DeckWalker108     Sep 26 2021 1:55PM
560006AtmosphericBow Creek(Stockton) 911300SWSep 26 2021 1:55PM
560006ApproachBow Creek(Stockton)122     Sep 26 2021 1:55PM
560006DeckBow Creek(Stockton)111     Sep 26 2021 1:55PM
560007AtmosphericLebanon 792648SSWSep 26 2021 1:55PM
560007ApproachLebanonUnavailable     Sep 26 2021 1:55PM
560007DeckLebanon111     Sep 26 2021 1:55PM
560008AtmosphericWallace 901946ESep 26 2021 1:55PM
560008ApproachWallace117     Sep 26 2021 1:55PM
560008DeckWallace111     Sep 26 2021 1:55PM
572000AtmosphericGreat Bend 95111420WSWSep 26 2021 1:55PM
572000ApproachGreat Bend117     Sep 26 2021 1:55PM
572000DeckGreat Bend113     Sep 26 2021 1:55PM
572001AtmosphericPratt 951128WSep 26 2021 1:55PM
572001ApproachPratt122     Sep 26 2021 1:55PM
572001DeckPratt117     Sep 26 2021 1:55PM
572002AtmosphericAnthony 9320919SWSep 26 2021 1:55PM
572002ApproachAnthony124     Sep 26 2021 1:55PM
572002DeckAnthony115     Sep 26 2021 1:55PM
573000AtmosphericEureka 9027717SWSep 26 2021 1:55PM
573000DeckEureka115     Sep 26 2021 1:55PM
573000DepartureEureka108     Sep 26 2021 1:55PM
573001AtmosphericGarnett 883259SWSep 26 2021 1:55PM
573001ApproachGarnettUnavailable     Sep 26 2021 1:55PM
573001DeckGarnettUnavailable     Sep 26 2021 1:55PM
573003AtmosphericChetopa 8831211SSESep 26 2021 1:55PM
573003DeckChetopa      Sep 26 2021 1:55PM
573003DeckChetopa117     Sep 26 2021 1:55PM
573003DepartureChetopaUnavailable     Sep 26 2021 1:55PM
573004AtmosphericChanute 90271117SSWSep 26 2021 1:55PM
573004ApproachChanute115     Sep 26 2021 1:55PM
573004DeckChanute111     Sep 26 2021 1:55PM